Regional Weather Roundup
Issued by NWS

Home | Current Version | Previous Version | Graphics & Text | Print | Product List | Glossary On
Versions: 1 2 3 4 5 6 7 8 9 10 11 12 13 14 15 16 17 18 19 20 21 22 23 24 25 26 27 28 29 30 31 32 33 34 35 36 37 38 39 40 41 42 43 44 45 46 47
000
ASUS43 KDMX 300107
RWRIA

WEATHER ROUNDUP FOR IOWA
NATIONAL WEATHER SERVICE DES MOINES IA
800 PM CDT WED JUL 29 2015

NOTE: "FAIR" INDICATES FEW OR NO CLOUDS BELOW 12,000 FEET WITH NO
SIGNIFICANT WEATHER AND/OR OBSTRUCTIONS TO VISIBILITY.

* - THESE STATIONS ARE NOT NWS STATIONS...THUS NOT UNDER NWS
QUALITY CONTROL.  THEY ALSO DO NOT REPORT WEATHER SUCH
AS PRECIPITATION OR FOG.

IAZ001>003-012>014-020>022-031>034-043>046-300200-
   NORTHWEST IOWA

CITY           SKY/WX    TMP DP  RH WIND       PRES   REMARKS
CARROLL *      CLEAR     75  66  73 SW6       30.11S
CHEROKEE *     CLEAR     75  63  64 SW3       30.09F
DENISON *      HAZE      75  64  69 CALM      30.10F VSB 1
LE MARS *      CLEAR     77  63  61 SW6       30.10S
ORANGE CITY *  CLEAR     73  61  64 SW6       30.09F
SHELDON *      CLEAR     75  63  64 SW6       30.07S
SIOUX CITY     CLEAR     78  66  66 SW6       30.10S HX  80
SPENCER        CLEAR     76  60  57 W7        30.08S
STORM LAKE *   CLEAR     73  61  64 W6        30.11S
$$

IAZ055>058-069>071-079>083-090>094-300200-
   SOUTHWEST IOWA

CITY           SKY/WX    TMP DP  RH WIND       PRES   REMARKS
ATLANTIC *     CLEAR     75  66  73 SW5       30.13S
AUDUBON *      CLEAR     75  64  69 W3        30.14S
CLARINDA *     CLEAR     79  63  57 CALM      30.16R HX  80
COUNCIL BLFS * CLEAR     77  63  61 SW6       30.14F
CRESTON *      CLEAR     75  63  64 W6        30.14S
HARLAN  *      CLEAR     75  73  94 SW6       30.16S
LAMONI         PTCLDY    77  66  68 W5        30.13S
RED OAK *      CLEAR     77  66  69 SW5       30.14S
SHENANDOAH *   CLEAR     81  68  65 CALM      30.15S HX  83
$$

IAZ047>049-059>061-072>074-084-300200-
   CENTRAL IOWA

CITY           SKY/WX    TMP DP  RH WIND       PRES   REMARKS
AMES           CLEAR     74  64  71 W6        30.09S
ANKENY *       CLEAR     77  61  57 W7        30.09S
CHARITON *     CLEAR     77  63  61 W5        30.12S
DES MOINES     PTCLDY    79  58  48 W6        30.10R HX  80
GRINNELL*      CLEAR     75  61  60 W6        30.09S
KNOXVILLE *    CLEAR     75  64  69 W6        30.09S
MARSHALLTOWN   CLEAR     74  62  66 W6        30.07S
PELLA *        CLEAR     77  66  69 W3        30.10S
PERRY *          N/A     73  66  78 W3        30.10S
$$

IAZ004>006-015-016-023>025-035-036-300200-
   NORTH CENTRAL IOWA

CITY           SKY/WX    TMP DP  RH WIND       PRES   REMARKS
ALGONA *       CLEAR     75  61  60 W8        30.07S
CLARION *      CLEAR     72  63  73 W7        30.07F
ESTHERVILLE    CLEAR     75  60  59 W7        30.06S
FORT DODGE *   CLEAR     73  61  64 SW5       30.09F
MASON CITY     CLEAR     76  60  57 W9        30.06S
FOREST CITY *  CLEAR     73  59  60 CALM      30.06S
IOWA FALLS *     N/A     73  61  64 W7        30.09S
$$

IAZ007>011-017>019-026>030-037>042-050>054-066-300200-
   NORTHEAST IOWA

CITY           SKY/WX    TMP DP  RH WIND       PRES   REMARKS
CEDAR RAPIDS   CLEAR     72  64  76 W6        30.05S
CHARLES CITY * CLEAR     73  61  64 W8        30.04F
CLINTON *      CLEAR     72  63  73 W7        30.06R
DECORAH *      CLEAR     75  57  53 VRB6      30.01S
DUBUQUE        CLEAR     75  58  55 W9        30.03S
MONTICELLO *   CLEAR     75  61  60 W7        30.03S
OELWEIN *      CLEAR     73  61  64 W6        30.05S
WATERLOO       CLEAR     76  59  55 W7        30.04S
$$

IAZ064-065-067-068-078-300200-
   EAST CENTRAL IOWA

CITY           SKY/WX    TMP DP  RH WIND       PRES   REMARKS
DAVENPORT      CLEAR     73  63  70 W7        30.05R
IOWA CITY      CLEAR     77  63  61 W6        30.07R
MT. PLEASANT * CLEAR     77  59  53 W5        30.08R
MUSCATINE *    CLEAR     77  64  65 W5        30.06R
QUAD CITIES    CLEAR     79  58  48 W9        30.04R HX  80
$$

IAZ062-063-075>077-085>089-095>099-300200-
   SOUTHEAST IOWA

CITY           SKY/WX    TMP DP  RH WIND       PRES   REMARKS
BURLINGTON     CLEAR     77  64  64 W3        30.08R
FAIRFIELD *    CLEAR     75  64  69 W6        30.09R
FORT MADISON * CLEAR     75  64  69 W3        30.09S
KEOKUK *       CLEAR     77  66  69 W5        30.08S
OSKALOOSA *      N/A     73  66  78 W3        30.10R
CENTERVILLE *  CLEAR     75  66  73 W5        30.13S
OTTUMWA        CLEAR     74  65  73 W6        30.07S
WASHINGTON *   CLEAR     75  64  69 W6        30.09R
$$

ABBREVIATIONS USED IN REMARKS
   TC - TEMPERATURES IN CELSIUS
  WCI - WIND CHILL INDEX
   HX - HEAT INDEX
  VSB - VISIBILITY
$$



USA.gov is the U.S. government's official web portal to all federal, state and local government web resources and services.